Location: Tyumen
(57.1527°N, 65.5323°E)
Time: 23:37:42
(UTC+05:00)

ISS - Visible Passes

Search period start: 23 May 2018 00:00
Search period end: 02 June 2018 00:00
Orbit: 402 x 407 km, 51.6° (Epoch: 24 May)

Date Brightness Start Highest point End Pass type
(mag) Time Alt. Az. Time Alt. Az. Time Alt. Az.
23 May -3.1 00:33:54 10° WSW 00:36:50 30° S 00:39:45 10° ESE visible
23 May -2.4 02:10:22 10° WSW 02:12:43 18° SSW 02:15:03 10° SSE visible
23 May -2.4 22:06:24 10° SSW 22:08:52 20° SSE 22:11:21 10° ESE visible
23 May -3.1 23:41:51 10° WSW 23:44:47 31° S 23:47:43 10° ESE visible
24 May -2.7 01:18:05 10° WSW 01:20:44 23° SSW 01:23:20 10° SE visible
24 May -3.0 22:49:51 10° SW 22:52:44 29° S 22:55:38 10° ESE visible
25 May -2.9 00:25:54 10° WSW 00:28:43 27° SSW 00:30:34 16° SE visible
25 May -1.5 02:03:00 10° WSW 02:03:08 10° SW 02:03:08 10° SW visible
25 May -3.0 23:33:45 10° WSW 23:36:40 30° S 23:39:25 11° SE visible
26 May -2.1 01:10:20 10° WSW 01:12:01 16° SW 01:12:01 16° SW visible
26 May -3.0 22:41:39 10° WSW 22:44:36 31° S 22:47:32 10° ESE visible
27 May -2.5 00:17:58 10° WSW 00:20:32 21° SSW 00:21:10 20° S visible
27 May -2.7 23:25:43 10° WSW 23:28:29 25° SSW 23:30:25 15° SE visible
28 May -2.8 22:33:30 10° WSW 22:36:24 29° S 22:39:17 10° SE visible
29 May -2.0 00:10:14 10° WSW 00:12:13 15° SSW 00:12:22 15° SSW visible
29 May -2.3 23:17:44 10° WSW 23:20:12 20° SSW 23:21:43 15° SSE visible
30 May -2.5 22:25:25 10° WSW 22:28:07 24° SSW 22:30:50 10° SE visible
31 May -1.7 23:10:03 10° WSW 23:11:47 14° SSW 23:13:08 11° S visible
